Home > Time Zones > World Clock > Weather > Italy > Rome > Past weeks

Flag for Italy Weather past 2 weeks in Rome, Italy

Now
72 °F

Passing clouds.


Feels Like: 71 °F
Forecast: 69 / 86 °F
Wind: 1 mph from Northwest

Location: Rome / Ciampino

Current Time: Sep 19, 2014 at 4:27:09 AM

Latest Report: Sep 19, 2014 at 3:45 AM


Visibility: N/A

Pressure: 30.01 "Hg

Humidity: 83%

Dew point: 66 °F

Location of RomeLocation

Historic Weather in Rome — Graph

°F

Rome temperature yesterday

Maximum temperature yesterday: 82 °F (at 2:45 PM)
Minimum temperature yesterday: 64 °F (at 6:15 AM)
Average temperature yesterday: 73 °F

Past Weeks' High & Low Weather Summary

 TemperatureHumidityPressure
High84 °F (Sep 8, 3:45 PM)100% (Sep 4, 5:45 AM)30.04 "Hg (Sep 4, 5:45 AM)
Low57 °F (Sep 13, 7:15 AM)28% (Sep 13, 2:45 PM)29.77 "Hg (Sep 6, 2:45 PM)
Average71 °F74%29.91 "Hg
* Reported Sep 4 3:15 AM — Sep 19 3:15 AM, Rome, Weather by CustomWeather, © 2014

Note: Actual official high and low records may vary slightly from our data, if they occured in-between our weather recording intervals... More about our weather records

Advertising

Rome weather history for previous 24 hours

 ConditionsComfort  
Time TempWeatherWind HumidityBarometerVisibility
3:15 AM
Sep 19
72 °FPassing clouds.No wind83%30.01 "HgN/A
2:45 AM72 °FPassing clouds.No wind83%30.01 "HgN/A
2:15 AM72 °FPassing clouds.1 mph78%30.01 "HgN/A
1:15 AM73 °FPassing clouds.No wind78%30.01 "HgN/A
12:45 AM73 °FPassing clouds.1 mph78%30.01 "HgN/A
12:15 AM73 °FPartly cloudy.No wind78%30.01 "HgN/A
11:45 PM
Sep 18
73 °FPartly cloudy.1 mph78%30.01 "HgN/A
11:15 PM73 °FPassing clouds.1 mph74%30.01 "HgN/A
10:45 PM73 °FPassing clouds.2 mph74%30.01 "HgN/A
10:15 PM72 °FPassing clouds.3 mph78%30.01 "HgN/A
9:45 PM72 °FPassing clouds.2 mph78%30.01 "HgN/A
9:15 PM73 °FPassing clouds.7 mph69%30.01 "HgN/A
8:45 PM75 °FPassing clouds.7 mph65%29.98 "HgN/A
8:15 PM75 °FPassing clouds.6 mph74%29.98 "HgN/A
7:45 PM75 °FPassing clouds.5 mph74%29.98 "HgN/A
7:15 PM77 °FSunny.7 mph65%29.98 "Hg10 mi
6:45 PM77 °FPassing clouds.8 mph61%29.98 "HgN/A
6:15 PM79 °FPassing clouds.9 mph58%29.98 "HgN/A
5:45 PM79 °FPassing clouds.12 mph54%29.98 "HgN/A
5:15 PM81 °FPassing clouds.8 mph51%29.98 "HgN/A
4:45 PM81 °FPassing clouds.9 mph48%29.98 "HgN/A
4:15 PM81 °FPassing clouds.9 mph51%29.98 "HgN/A
3:45 PM81 °FPassing clouds.7 mph51%29.98 "HgN/A
3:15 PM82 °FScattered clouds.10 mph45%29.98 "HgN/A
2:45 PM82 °FScattered clouds.8 mph51%29.98 "HgN/A
2:15 PM79 °FScattered clouds.6 mph65%30.01 "HgN/A
1:45 PM77 °FPartly sunny.6 mph69%30.01 "HgN/A
1:15 PM77 °FThunderstorms. Partly sunny.8 mph65%30.01 "Hg6 mi
12:45 PM75 °FThunderstorms. Partly sunny.3 mph74%29.98 "Hg6 mi
12:15 PM77 °FThunderstorms. Partly sunny.6 mph57%29.98 "Hg4 mi
11:55 AM79 °FThunderstorms. Partly sunny.6 mph51%29.98 "HgN/A
11:15 AM77 °FPartly sunny.3 mph57%29.98 "HgN/A
10:45 AM75 °FPartly sunny.3 mph65%29.98 "HgN/A
10:15 AM73 °FPartly sunny.2 mph74%29.98 "HgN/A
9:45 AM72 °FPartly sunny.2 mph78%29.98 "HgN/A
9:15 AM68 °FPartly sunny.1 mph88%29.98 "HgN/A
8:45 AM66 °FPartly sunny.No wind100%29.98 "HgN/A
8:15 AM66 °FPartly sunny.No wind94%29.98 "HgN/A
7:45 AM64 °FPassing clouds.No wind100%29.98 "HgN/A
7:15 AM64 °FPassing clouds.No wind94%29.95 "HgN/A
6:45 AM64 °FPassing clouds.No wind94%29.95 "HgN/A
6:15 AM64 °FPassing clouds.1 mph100%29.95 "HgN/A
5:45 AM66 °FPassing clouds.No wind94%29.95 "HgN/A
5:15 AM66 °FPassing clouds.1 mph94%29.95 "HgN/A
4:45 AM66 °FPassing clouds.No wind94%29.95 "HgN/A
4:15 AM66 °FPassing clouds.No wind94%29.95 "HgN/A
Weather by CustomWeather, © 2014

See weather overviewHow to use our weather pages